Regional Weather Roundup
Issued by NWS

Home | Current Version | Previous Version | Graphics & Text | Print | Product List | Glossary On
Versions: 1 2 3 4 5 6 7 8 9 10 11 12 13 14 15 16 17 18 19 20 21 22 23 24 25 26 27 28 29 30 31 32 33 34 35 36 37 38 39 40 41 42 43 44 45 46 47 48 49 50
000
ASUS43 KMKX 061559
RWRWI

WISCONSIN REGIONAL WEATHER ROUNDUP
NATIONAL WEATHER SERVICE MILWAUKEE/SULLIVAN WI
1000 AM CST FRI MAR 06 2015

NOTE: "FAIR" INDICATES FEW OR NO CLOUDS BELOW 12,000 FEET WITH NO
SIGNIFICANT WEATHER AND/OR OBSTRUCTIONS TO VISIBILITY.

WIZ001-002-006>008-014>016-023>028-061700-
NORTHWEST WISCONSIN

CITY           SKY/WX    TMP DP  RH WIND       PRES   REMARKS
SUPERIOR ARPT  SUNNY     20   7  58 W12G17    30.01S WCI   8
ASHLAND        MOSUNNY   21   6  52 W16G22    30.00F WCI   7
HAYWARD        SUNNY     16   3  56 SW14      30.01F WCI   2
SIREN          SUNNY     20   7  57 W10       30.04S WCI   9
CUMBERLAND     PTSUNNY   16   5  62 SW12      30.03S WCI   3
RICE LAKE      PTSUNNY   15   4  63 S8        30.07R WCI   4
CHETEK         CLOUDY    15   4  61 S5        30.07R WCI   8
LADYSMITH      CLOUDY    13   3  64 S9        30.06F WCI   1
EAU CLAIRE     CLOUDY    19   6  57 S13       30.07F WCI   6
MENOMONIE      CLOUDY    19   6  58 S10       30.08F WCI   7
NEW RICHMOND   CLOUDY    18   8  62 SW10      30.07R WCI   7
OSCEOLA        MOSUNNY   20   8  60 SW6       30.09S WCI  12
$$

WIZ003>005-009-010-017-018-061700-
NORTH CENTRAL WISCONSIN

CITY           SKY/WX    TMP DP  RH WIND       PRES   REMARKS
MANITOWISH WTR CLOUDY    13   1  59 SW12      29.98F WCI  -1
ARBOR VITAE    PTSUNNY   14   3  61 SW10      29.99S WCI   1
WOODRUFF       PTSUNNY   14   3  61 SW10      29.99S WCI   1
RHINELANDER    CLOUDY    13   1  59 SW15      30.01F WCI  -3
EAGLE RIVER    MOSUNNY   13  -1  54 SW15G22   29.99F WCI  -3
LAND O LAKES   PTSUNNY   15   1  53 SW9G17    29.97F WCI   3
PHILLIPS       CLOUDY    12   1  62 SW10G17   30.02S WCI  -1
TOMAHAWK       CLOUDY    14   1  58 CALM      30.04F
MEDFORD        CLOUDY    11   1  66 S13       30.06F WCI  -4
MERRILL        CLOUDY    12   0  60 SW9       30.07F WCI  -1
$$

WIZ029-030-035-036-043>047-061700-
CENTRAL WISCONSIN

CITY           SKY/WX    TMP DP  RH WIND       PRES   REMARKS
WAUSAU         CLOUDY    14   2  58 S12       30.09F WCI   0
MOSINEE        PTSUNNY   12   3  67 S14G21    30.11F WCI  -3
MARSHFIELD     CLOUDY    17   4  56 SW14      30.09F WCI   3
STEVENS POINT  PTSUNNY   14   1  58 S13       30.14F WCI  -1
WAUPACA        MOSUNNY   18   4  53 S9        30.19F WCI   7
WAUTOMA        NOT AVBL
WISC RAPIDS    PTSUNNY   17   2  51 S16       30.15F WCI   2
CAMP DOUGLAS   NOT AVBL
$$

WIZ011>013-019>022-031-037>040-048>050-061700-
NORTHEAST WISCONSIN

CITY           SKY/WX    TMP DP  RH WIND       PRES   REMARKS
ANTIGO         CLOUDY    13   2  62 SW18      30.06F WCI  -4
SHAWANO        SUNNY     14   1  56 SW10      30.18F WCI   2
OCONTO         PTSUNNY   12   0  57 SW12      30.19F WCI  -2
STURGEON BAY   CLOUDY    16   1  53 SW18G24   30.18F WCI  -1
GREEN BAY      MOSUNNY   12   3  67 S14       30.20F WCI  -3
MANITOWOC      NOT AVBL
APPLETON       PTSUNNY   14   3  62 SW17G23   30.20F WCI  -3
CLINTONVILLE   PTSUNNY   12   1  62 SW15      30.18F WCI  -4
OSHKOSH        MOSUNNY   16   4  59 SW20G29   30.20F WCI  -1
$$

WIZ032>034-041-042-053>061-061700-
SOUTHWEST WISCONSIN

CITY           SKY/WX    TMP DP  RH WIND       PRES   REMARKS
LA CROSSE      SUNNY     19   6  57 S10       30.17F WCI   7
SPARTA         MOSUNNY   19   5  54 SW10G17   30.18F WCI   8
VIROQUA        SUNNY     17   6  63 S14G20    30.15F WCI   3
BOSCOBEL       MOSUNNY   21   6  52 SW9       30.23F WCI  11
PRAIRIE DU CHI SUNNY     19   5  54 S9        30.24S WCI   8
PLATTEVILLE    SUNNY     13   4  69 S13       30.24F WCI  -2
$$

WIZ056-057-062-063-064-067-068-061700-
SOUTH CENTRAL WISCONSIN

CITY           SKY/WX    TMP DP  RH WIND       PRES   REMARKS
REEDSBURG      SUNNY     16   5  61 S9        30.20F WCI   5
BARABOO/DELLS  SUNNY     17   4  56 SW13      30.19S WCI   3
LONE ROCK      NOT AVBL
MINERAL POINT  SUNNY     18   5  57 S12       30.21F WCI   5
MADISON        PTSUNNY   16   3  56 S14G22    30.24F WCI   2
MIDDLETON      SUNNY     17   3  52 S13       30.23F WCI   4
WATERTOWN      SUNNY     14   3  62 S16       30.26F WCI  -2
MONROE         MOSUNNY   16   7  67 S17G23    30.24F WCI   0
JANESVILLE     MOSUNNY   18   5  57 SW16      30.28F WCI   3
$$

WIZ051-052-058>065-066-070>072-061700-
SOUTHEAST WISCONSIN

CITY           SKY/WX    TMP DP  RH WIND       PRES   REMARKS
MILWAUKEE      PTSUNNY   15   2  56 SW15G23   30.30F WCI   0
WAUKESHA       SUNNY     16   1  53 S15       30.27F WCI   1
MILWAUKEE/TIMM SUNNY     16   1  53 S16       30.29F WCI   0
RACINE         MOSUNNY   16   4  59 S16G22    30.33F WCI   1
BURLINGTON     SUNNY     14   2  58 SW16G24   30.31F WCI  -2
KENOSHA        MOSUNNY   17   5  59 SW16      30.32F WCI   2
FOND DU LAC    MOSUNNY   17   4  56 SW21G31   30.22F WCI   0
SHEBOYGAN      MOSUNNY   18   6  59 SW21      30.23F WCI   1
WEST BEND      SUNNY     18   3  53 S12G22    30.24F WCI   5
JUNEAU         MOSUNNY   13   3  64 S20       30.25F WCI  -4
$$

LSZ147-162-061700-
LAKE SUPERIOR

STATION/POSITION TIME  TEMP    WIND        PRES    WAVE
                       AIR SEA DIR/SP/G            HT/PER
                 (UTC) (F)     (DEG/KT/KT) (MB)    (FT/S)
DEVILS ISLAND    1500   15     240/ 19/ 22 1016.5F
PORT WING        1500   18     210/ 10/ 17 1015.9
SAXON HARBOR     1500   17     210/ 11/ 22 1015.9S
$$

LMZ867-665-643>646-061700-
LAKE MICHIGAN

STATION/POSITION TIME  TEMP    WIND        PRES    WAVE
                       AIR SEA DIR/SP/G            HT/PER
                 (UTC) (F)     (DEG/KT/KT) (MB)    (FT/S)
NORTHPORT PIER   1502   15     200/  9/ 23 1021.7F
KEWAUNEE LAKESHO 1500   14     220/ 13/ 18 1022.7F
SHEBOYGAN LAKESH 1500   13     210/ 15/ 16 1027.2F
PORT WASHINGTON  1540   20     210/  9/ 13 1026.4F
MILWAUKEE LAKESH 1500   12     220/ 17/ 20   N/A
KENOSHA   LAKESH 1500   13     220/  8/ 15 1028.1F
$$

TC  - TEMPERATURE IN CELSIUS
VSB - VISIBILITY IN STATUTE MILES
WCI - WIND CHILL INDEX
HX  - HEAT INDEX




USA.gov is the U.S. government's official web portal to all federal, state and local government web resources and services.